#timestamp,LO_Frequency,Hit,StdDev 
1655830815.6,286047001.7,N
1655830835.4,286046999.7,N
1655830855.3,286047004.3,N
1655830875.1,286047007.3,N
1655830895.9,286047007.1,N
1655830915.7,286047008.0,N
1655830935.5,286047012.9,Y
1655830955.4,286047011.8,P
1655830975.2,286047011.9,P
1655830995.0,286047008.2,N
1655830995.9,286047008.2,N
1655831015.8,286047010.8,Y
1655831035.6,286046999.9,P
1655831055.5,286047000.3,N
1655831075.3,286047003.7,N
1655831095.1,286047004.8,N
1655831115.9,286047005.7,N
1655831135.7,286047004.9,N
1655831155.5,286047005.0,N
1655831175.4,286047007.5,N
1655831195.2,286047007.9,N
1655831215.1,286047011.6,Y
1655831216.0,286047011.6,P
1655831235.8,286047006.8,N
1655831255.6,286047007.1,N
1655831275.5,286047005.1,N
1655831295.3,286047003.0,N
1655831315.2,286047005.6,N
1655831335.9,286047006.7,N
1655831355.7,286047010.0,Y
1655831375.6,286047005.6,P
1655831395.4,286047005.7,P
1655831415.2,286047003.1,P
1655831435.1,286047001.6,N
1655831436.0,286047001.6,N
1655831455.8,286047006.0,Y
1655831475.7,286047002.7,P
1655831495.5,286047005.6,P
1655831515.3,286047005.3,P
1655831535.2,286047010.8,Y
1655831555.0,286047008.8,P
1655831555.9,286047008.8,P
1655831575.8,286047009.2,P
1655831595.6,286047007.5,Y
1655831615.4,286046997.2,P
1655831635.3,286046998.9,N
1655831655.1,286046996.9,N
1655831675.8,286047000.9,N
1655831695.7,286046999.4,N
1655831715.5,286046997.0,N
1655831735.3,286046997.5,N
1655831755.2,286046999.1,N
1655831775.0,286046997.7,N
1655831775.9,286046997.7,N
1655831795.8,286046997.5,N
1655831815.6,286046994.2,N
1655831835.4,286046993.6,N
1655831855.3,286046994.6,N
1655831875.1,286046992.3,N
1655831895.8,286046994.4,N
1655831915.7,286046991.1,N
1655831935.5,286046987.6,Y
1655831955.4,286046992.6,P
1655831975.2,286046992.5,P
1655831995.0,286046993.8,N
1655831995.9,286046993.8,Y
1655832015.8,286047002.6,P
1655832035.6,286047002.9,N
1655832055.5,286047004.0,N
1655832075.3,286047002.4,N
1655832095.1,286046998.9,N
1655832115.9,286046992.2,N
1655832135.7,286046991.3,N
1655832155.5,286046988.8,N
1655832175.4,286046992.8,N
1655832195.2,286046994.3,N
1655832215.0,286046995.4,N
1655832215.9,286046995.4,N
1655832235.8,286047000.5,N
1655832255.6,286047001.5,N
1655832275.5,286047005.6,N
1655832295.3,286047004.7,N
1655832315.1,286047004.2,N
1655832335.9,286047004.2,N
1655832355.7,286047003.2,N
1655832375.5,286047007.2,N
1655832395.4,286047009.2,N
1655832415.2,286047007.8,N
1655832435.1,286047012.3,N
1655832436.0,286047012.3,N
1655832455.8,286047013.0,N
1655832475.6,286047014.6,N
1655832495.5,286047014.7,N
1655832515.3,286047013.2,N
1655832535.1,286047016.8,N
1655832555.9,286047014.7,N
1655832575.7,286047016.2,N
1655832595.6,286047017.2,N
1655832615.4,286047017.2,N
1655832635.2,286047016.9,N
1655832655.1,286047014.8,N
1655832656.0,286047014.8,N
1655832675.8,286047015.4,N
1655832695.7,286047015.1,N
1655832745.5,286047018.4,E
1655832755.4,286047010.6,N
1655832775.3,286046998.2,P
1655832795.1,286047001.2,N
1655832815.9,286046998.7,N
1655832835.7,286046998.8,N
1655832855.5,286047000.4,N
1655832875.4,286047001.1,N
1655832895.2,286046996.9,N
1655832915.0,286046997.2,N
1655832915.9,286046997.2,N
1655832935.8,286046997.5,N
1655832955.6,286046993.4,N
1655832975.4,286046991.9,N
1655832995.3,286046992.9,N
1655833015.1,286046991.0,N
1655833035.9,286046991.8,N
1655833055.7,286046996.4,N
1655833075.5,286046995.0,N
1655833095.4,286046998.8,N
1655833115.2,286046996.7,N
1655833135.0,286046998.5,N
1655833136.0,286046998.5,N
1655833155.8,286046998.9,N
1655833175.6,286046996.3,N
1655833195.5,286046994.1,N
1655833215.3,286046994.2,N
1655833235.1,286046990.8,N
1655833255.9,286046988.3,N
1655833275.7,286046984.7,Y
1655833295.6,286046988.5,P
1655833315.4,286046994.8,N
1655833335.2,286046998.0,N
1655833355.1,286047002.3,N
1655833356.0,286047002.3,N
1655833375.8,286047002.5,N
1655833395.6,286047004.3,N
1655833415.5,286047004.9,N
1655833435.3,286047008.1,N
1655833455.2,286047006.3,N
1655833475.9,286047004.5,N
1655833495.7,286047006.1,N
1655833515.6,286047008.5,N
1655833535.4,286047006.8,N
1655833555.2,286047006.7,N
1655833575.1,286047007.5,N
1655833576.0,286047007.5,N
1655833595.8,286047005.5,N
1655833615.7,286047003.0,N
1655833635.5,286047005.6,N
1655833655.3,286047007.3,N
1655833675.2,286047008.6,N
1655833695.0,286047010.8,N
1655833695.9,286047010.8,N
1655833715.7,286047008.5,N
1655833735.6,286047006.1,N
1655833755.4,286047010.6,N
1655833775.3,286047010.2,N
1655833795.1,286047010.1,N
1655833796.0,286047010.1,N
1655833815.8,286047009.5,N
1655833835.7,286047012.3,Y
1655833855.5,286047003.4,P
1655833875.4,286047006.0,P
1655833895.2,286047006.0,P
1655833915.0,286047003.2,N
1655833915.9,286047003.2,N
1655833935.8,286047002.9,N
1655833955.6,286047004.2,N
1655833975.4,286047002.3,N
1655833995.3,286046996.5,N
1655834015.1,286046997.9,N
1655834035.9,286046996.8,N
1655834055.7,286046999.2,N
1655834075.5,286046996.9,N
1655834095.4,286047011.9,Y
1655834115.2,286046993.8,P
1655834135.1,286046992.9,N
1655834136.0,286046992.9,N
1655834155.8,286046991.0,N
1655834175.6,286046989.9,N
1655834195.5,286046988.4,Y
1655834215.3,286046993.1,P
1655834235.2,286046994.1,P
1655834255.9,286046993.6,P
1655834275.7,286046997.9,Y
1655834295.6,286047005.4,P
1655834315.4,286047007.6,N
1655834335.3,286047006.2,N
1655834355.1,286047008.5,N
1655834356.0,286047008.5,N
1655834375.8,286047011.9,N
1655834395.7,286047010.8,N
